ONEWEB-0628 (55169 NORAD) Tracking and Keplerian Element Data

This shows tracking and keplerian element data for the satellite.

Feedback or suggestion? Click here.




ElementValue
Catalog55169
NameONEWEB-0628
Epoch Orbit1120
Epoch Day84.89069844
Epoch Year2023
RAAN253.6273
Inclination86.6259
Eccentricity0.0014061
Argument of Perigee335.9441
Mean Anonmoly24.1114
Mean Motion14.65819211
Decay Rate1.632E-05
L11 55169U 23004AF 23084.89069844 .00001632 00000+0 29460-3 0 9995
L22 55169 86.6259 253.6273 0014061 335.9441 24.1114 14.65819211 11208



Live tracking and technical data element details for ONEWEB-0628 (NORAD 55169). ONEWEB-0628 can be tracked NOW for your location showing map with azimuth and elevation plus other details from your city location.







IsCatalogInMostPopularTable: catalog: 55169, numindb: 12
Update: records affected: 1



GetName: 55169 ONEWEB-0628

Hit Count: updated at: Mon, 27 Mar 2023 07:58:19 GMT